Location: Franzen
(48.6167°N, 15.3833°E)
Time: 21:35:55
(UTC+00:00)

Cosmos 1709 Rocket - Pass Details

Date: 01 August 2021
Orbit: 947 x 1002 km, 82.9° (Epoch: 22 September)

Event Time Altitude Azimuth Distance (km) Brightness Sun altitude
Exits shadow 21:46:08 19° 105° (ESE) 2,188 5.5 -21.3°
Maximum altitude 21:48:05 22° 81° (E) 2,046 5.6 -21.4°
Drops below altitude 10° 21:52:43 10° 34° (NNE) 2,784 6.9 -21.7°
Sets 21:55:51 0° 20° (NNE) 3,741 7.9 -21.9°
